Theta_e
340 350 361 362 363 363 363 362 362 362 361 361 360 359 358 358 357 356 354 353 354 350 348 345 342 340 337 335 334 333 334 334 335 340 347 350 352 353 353 354 353 351 354
341 351 360 361 363 364 363 362 362 361 360 361 360 358 358 357 356 355 352 351 350 346 344 341 339 337 335 334 333 332 332 330 329 328 329 340 348 349 351 350 351 351 352
343 351 355 360 362 363 363 362 361 360 360 360 360 359 357 357 355 352 352 350 347 343 341 340 338 337 336 335 335 334 333 333 334 334 332 322 334 348 349 351 352 352 351
346 349 349 359 360 362 362 362 361 360 360 360 360 359 357 356 354 352 350 347 344 342 341 339 338 338 338 337 337 336 336 337 338 338 333 331 325 349 349 351 352 351 351
344 347 346 358 359 361 361 361 360 360 360 360 360 359 357 356 355 353 350 348 344 342 340 339 339 340 339 339 340 339 339 340 342 341 337 332 329 343 349 350 351 351 350
342 343 350 356 358 360 361 360 360 360 360 360 360 360 358 356 355 353 350 348 347 343 341 340 341 341 340 342 342 341 341 343 345 339 337 339 331 349 348 350 350 351 351
337 339 349 355 357 359 360 360 360 360 359 360 360 360 358 357 355 352 350 347 347 346 344 342 344 344 345 345 344 344 344 345 343 341 339 336 332 349 349 349 349 348 349
335 340 346 354 355 356 358 358 358 358 359 359 359 359 358 357 355 353 350 349 348 348 347 347 347 346 347 347 347 347 346 347 343 338 336 333 334 348 346 346 346 346 347
338 343 345 347 350 355 355 356 357 357 358 358 358 357 357 356 354 353 351 350 349 348 348 348 348 346 348 347 347 348 347 347 339 336 336 334 341 346 344 343 344 345 349
341 341 345 346 347 345 347 355 355 356 356 356 356 356 356 355 354 352 349 348 348 348 349 348 349 347 348 348 347 348 347 346 337 335 334 333 346 344 342 343 343 347 350
340 339 342 345 345 344 343 348 352 354 355 355 355 355 352 347 347 346 347 346 348 348 348 349 349 348 348 348 348 347 347 337 336 335 333 338 347 345 345 345 346 347 350
339 339 338 342 343 343 345 343 343 344 344 345 345 345 344 339 339 343 345 347 348 348 348 348 348 349 346 341 341 346 340 338 337 335 332 341 349 347 347 346 345 345 347
341 341 340 337 340 339 339 342 342 342 341 342 341 340 340 338 337 340 336 341 339 345 338 343 343 343 340 339 339 336 338 339 337 334 335 346 349 349 347 345 344 344 346
340 341 341 339 336 335 335 339 339 339 339 339 340 338 337 335 333 332 333 333 334 334 334 334 337 338 338 338 339 336 335 337 336 334 333 344 349 350 347 346 343 343 345
337 343 344 341 338 335 333 335 337 336 336 336 337 337 337 335 332 331 330 329 332 331 334 332 334 335 337 337 337 337 335 335 336 333 335 350 348 347 347 345 343 343 344
334 335 342 343 341 339 334 335 337 338 337 336 335 336 336 335 333 331 329 328 329 331 333 333 331 332 333 335 334 335 335 335 337 335 336 343 347 346 347 346 344 343 343
335 336 336 340 342 342 340 339 339 340 340 338 337 338 337 335 334 332 330 328 330 330 330 332 329 329 329 332 333 333 334 336 339 337 336 337 341 345 346 346 345 344 344
331 332 334 336 332 339 343 343 341 341 341 342 341 340 339 338 335 334 332 330 330 330 329 331 329 326 329 330 330 332 333 338 338 337 336 337 338 339 343 344 344 344 346
327 330 329 331 332 340 346 345 345 346 345 343 342 341 341 340 337 335 335 333 331 331 330 330 330 328 327 328 331 331 332 334 335 336 334 336 334 336 334 339 343 343 343
327 327 329 330 330 339 345 346 346 344 345 343 343 342 344 343 341 336 337 334 332 331 330 329 329 330 327 328 331 331 330 332 331 331 330 334 331 332 333 333 334 336 342
322 324 325 329 337 343 343 343 343 343 343 339 339 340 340 344 343 338 337 335 335 332 331 331 328 327 326 328 325 325 326 329 329 331 331 331 331 332 333 333 334 332 335
317 325 326 329 337 343 343 344 339 340 332 337 337 337 337 342 344 341 337 338 336 335 330 330 329 326 325 326 322 321 318 321 325 329 326 328 327 330 331 332 331 332 332
316 322 326 329 330 341 342 337 328 327 327 327 329 330 332 340 345 343 341 339 338 337 333 330 330 327 323 324 325 322 319 317 318 322 322 324 325 325 327 328 330 331 330
315 323 328 329 329 334 332 333 328 327 323 324 323 330 334 341 344 343 341 339 338 336 333 332 332 327 326 323 326 329 327 323 317 315 319 321 324 326 327 325 326 329 330
314 321 326 328 328 330 330 328 328 321 324 324 326 329 334 337 342 343 341 338 337 337 335 335 333 331 331 327 327 326 327 325 322 314 311 315 321 322 324 323 324 325 326
311 319 322 325 325 326 327 327 325 324 325 326 329 332 334 335 339 341 340 339 338 337 335 337 335 332 330 328 329 327 324 321 316 315 312 313 315 317 320 321 320 320 323
Wind_Speed
8 13 19 18 22 22 21 19 18 17 16 16 15 15 14 14 16 16 16 15 13 13 12 11 9 8 7 6 5 4 5 4 4 5 5 5 6 5 6 7 5 8 11
18 14 20 19 22 22 21 19 18 17 16 16 16 15 14 14 15 15 14 14 13 12 11 9 9 8 7 6 4 4 3 3 2 3 3 3 3 3 2 4 5 7 9
21 15 16 19 22 22 22 20 18 18 16 16 15 14 14 13 15 14 13 12 12 12 11 10 9 8 7 6 4 3 2 1 2 2 2 1 2 3 3 4 7 9 9
20 15 13 19 21 22 22 21 20 19 17 17 16 15 14 14 14 14 13 12 11 11 11 10 9 8 8 7 5 3 2 1 1 2 1 3 5 6 5 6 8 8 8
18 15 13 19 21 23 23 22 20 20 19 18 17 16 15 14 13 13 12 11 11 11 11 10 10 9 9 8 6 4 2 2 3 2 1 4 6 7 8 8 8 8 8
16 15 16 19 21 23 23 22 21 20 20 18 18 17 16 16 14 13 13 12 11 12 11 11 10 9 9 8 6 4 3 4 5 4 4 6 5 10 12 10 9 9 8
16 14 16 20 20 23 23 22 22 21 20 19 18 17 17 16 15 15 14 13 12 12 12 11 11 10 9 9 7 5 5 6 4 2 4 5 5 11 12 10 9 7 7
20 14 14 19 20 22 22 21 21 20 19 19 18 17 17 16 15 15 14 13 12 12 12 12 11 10 9 8 7 6 7 8 5 2 3 3 7 10 11 10 9 8 7
16 15 12 12 14 19 20 19 20 20 18 18 17 17 17 16 16 15 14 14 14 13 13 12 12 11 10 9 8 8 9 10 5 2 3 3 10 12 11 10 10 9 8
12 12 11 9 10 10 11 17 19 20 19 19 18 17 17 17 16 16 15 14 15 14 14 13 13 12 11 10 9 9 11 11 5 4 3 3 11 14 13 11 10 9 9
9 11 11 10 8 9 8 11 14 17 17 17 16 18 14 8 10 12 13 15 16 15 14 14 13 13 12 11 10 11 12 3 4 3 3 7 13 15 14 13 11 8 7
13 13 13 13 11 8 8 7 6 8 7 8 8 9 7 6 7 9 12 16 16 16 15 15 14 13 12 4 4 10 3 4 4 3 3 11 16 17 15 13 11 9 7
19 12 15 15 13 14 10 7 5 4 5 5 8 8 6 6 5 5 3 6 6 13 6 9 8 6 6 4 4 4 4 4 3 3 7 11 15 16 14 13 12 11 9
10 7 9 9 11 12 6 8 8 7 6 6 8 9 6 4 5 5 5 6 5 5 6 5 4 5 5 6 7 5 6 5 4 4 7 13 16 15 15 14 13 12 11
10 10 10 9 7 8 11 10 7 9 8 8 7 9 8 7 6 6 5 5 6 5 6 6 6 6 6 8 7 8 6 6 7 3 3 13 18 16 15 15 13 13 13
14 12 13 14 15 9 5 7 9 9 8 7 8 9 12 8 7 7 6 7 7 7 7 7 8 7 8 6 7 9 8 6 8 5 4 6 17 16 15 15 13 12 13
14 18 19 17 16 15 12 9 8 8 8 9 8 10 11 11 9 10 8 8 8 8 8 7 5 4 4 5 7 6 5 8 7 5 4 4 8 16 15 14 14 13 14
7 12 16 14 9 7 13 13 10 8 8 8 8 7 12 11 10 10 9 9 7 7 7 7 6 5 6 6 6 6 5 6 7 7 6 7 5 4 11 14 13 13 13
13 14 12 10 14 17 15 12 9 8 8 8 6 7 10 11 13 11 9 8 8 7 7 8 6 6 5 4 5 5 5 5 5 5 7 6 4 5 4 9 12 11 11
15 16 17 13 11 13 12 11 7 3 6 5 7 8 10 9 12 12 8 7 9 7 6 5 7 6 4 6 6 5 4 4 4 5 4 2 5 6 5 6 4 6 13
9 9 13 13 16 11 5 6 5 10 8 5 7 8 8 8 11 10 8 7 9 10 10 10 5 6 4 4 4 0 2 4 4 5 1 3 4 5 5 5 5 4 5
9 13 10 13 16 12 10 9 5 7 4 5 5 6 9 11 10 9 10 10 11 7 6 7 6 3 3 5 4 2 1 4 2 4 2 3 3 4 4 5 5 6 5
10 11 14 16 16 15 14 5 3 3 2 3 3 4 7 10 11 12 12 10 9 8 6 6 6 7 4 3 3 6 2 4 1 2 1 3 4 4 4 4 5 6 6
11 9 12 17 17 16 14 12 9 7 6 6 5 4 5 8 11 11 12 10 8 5 6 6 6 5 5 5 1 1 3 5 3 3 3 1 2 3 4 3 4 5 5
9 10 13 15 16 16 15 13 12 5 5 2 2 5 4 5 8 10 10 8 7 5 5 7 7 6 4 4 3 3 2 2 3 3 3 3 2 2 4 3 4 4 3
9 8 8 11 11 10 9 9 10 11 9 5 4 4 4 3 5 8 8 7 6 5 6 6 6 8 6 4 3 3 4 4 3 3 2 4 3 3 2 2 3 4 4
Wind_Direction
184 173 169 163 146 142 139 135 131 128 126 121 119 118 120 120 119 119 118 117 118 120 122 121 120 118 113 109 103 91 86 82 78 80 77 76 76 85 112 127 129 130 126
145 166 172 166 149 143 139 138 137 136 135 130 131 132 131 128 124 122 125 128 129 130 132 131 132 130 130 127 122 105 91 79 56 35 18 36 73 70 73 120 145 144 140
147 158 171 169 151 144 140 142 143 142 140 138 139 141 141 138 135 133 134 139 143 143 145 144 146 142 139 138 137 134 111 55 36 14 337 312 280 143 103 104 122 144 150
143 156 169 174 151 144 143 149 151 148 147 146 148 150 151 148 147 144 149 153 155 154 155 156 157 156 159 160 162 162 154 301 337 341 0 267 245 185 155 134 140 151 165
143 155 167 174 155 147 150 154 154 152 153 155 157 159 161 160 157 155 161 164 169 167 168 170 170 170 172 175 177 189 209 289 307 332 283 253 226 200 175 156 144 160 174
148 158 164 176 161 152 156 160 155 159 159 161 163 165 167 170 164 165 174 175 180 182 181 182 180 182 187 188 188 206 245 280 304 332 339 323 160 184 176 158 147 164 175
159 160 164 176 168 158 161 161 159 163 164 167 168 169 174 174 173 175 182 183 189 191 188 193 191 190 201 204 198 212 246 268 291 312 316 322 197 199 176 166 157 161 166
153 161 167 175 176 164 165 164 162 166 169 170 172 173 178 178 180 185 187 188 194 199 196 199 198 197 207 215 213 216 243 263 276 302 295 303 208 208 173 171 173 176 186
150 154 164 177 181 170 167 165 165 167 172 174 177 179 183 182 185 190 192 191 198 200 204 206 204 205 211 213 222 231 242 255 265 266 275 299 203 193 184 180 186 191 195
141 152 162 166 179 176 168 170 172 170 173 177 180 184 186 185 190 193 197 197 203 204 205 210 207 210 215 216 223 238 248 258 270 276 255 260 193 189 188 189 193 196 194
145 164 165 167 179 173 160 173 178 178 176 180 186 191 189 188 191 198 197 203 205 208 209 213 212 212 215 219 228 246 256 242 257 251 250 240 207 198 193 192 194 197 195
168 177 178 175 174 161 172 166 165 182 184 188 189 195 190 178 186 192 201 208 212 209 213 215 217 214 217 202 230 245 245 243 246 252 251 249 206 203 198 196 194 195 197
185 171 179 179 178 178 176 161 169 185 181 185 194 193 190 178 189 202 182 207 208 215 212 216 218 211 205 188 221 226 243 243 235 228 251 235 201 204 203 203 198 197 200
152 173 171 181 186 184 170 179 176 185 193 195 202 191 185 181 186 197 198 197 194 205 197 197 197 203 197 196 217 227 234 241 234 228 248 247 199 204 207 209 197 200 200
143 154 165 155 163 208 183 184 183 197 197 198 193 194 191 193 190 188 202 187 202 190 193 197 200 206 205 211 221 231 238 231 246 228 236 212 193 203 206 208 203 198 205
151 163 165 181 171 164 211 248 197 188 196 186 202 202 196 194 187 193 197 204 201 196 200 199 204 204 209 207 222 233 234 233 241 213 214 222 201 197 201 205 202 206 211
174 165 170 183 182 185 163 215 206 208 187 197 207 199 193 199 185 192 200 205 202 198 197 201 205 188 190 202 221 222 219 235 232 201 212 230 212 203 202 206 197 201 215
206 183 185 184 174 191 187 198 205 203 191 202 200 198 193 196 190 194 205 206 194 189 189 197 193 191 200 203 217 225 221 225 241 197 192 211 210 188 211 215 207 215 211
212 216 214 203 184 187 200 198 198 185 196 207 192 188 200 195 195 200 207 200 177 189 195 191 198 188 193 195 213 223 232 237 223 187 218 189 202 199 203 233 220 225 222
207 212 207 202 210 205 192 200 211 188 205 187 199 199 194 199 196 203 204 193 183 185 194 184 186 194 173 199 211 213 226 230 215 212 194 172 212 221 209 205 237 220 218
189 199 206 199 208 186 176 187 211 215 217 226 205 199 198 209 204 194 200 184 185 199 197 190 172 170 192 170 120 351 267 249 240 250 231 241 217 213 213 204 209 218 218
208 199 201 215 208 203 198 200 192 188 195 208 209 215 205 200 197 187 192 189 197 195 180 174 169 145 165 175 146 111 245 320 296 262 246 238 231 206 208 211 219 209 205
233 195 201 202 206 200 201 170 74 63 62 128 202 213 224 195 192 187 188 190 188 183 180 182 167 160 154 204 215 144 134 227 327 343 276 212 220 213 228 222 228 210 198
231 228 202 201 195 196 181 186 179 184 181 204 186 191 221 189 185 181 178 178 167 156 174 179 173 163 141 159 175 74 82 144 170 318 331 343 221 239 236 234 214 213 194
239 220 208 198 196 192 187 188 197 176 202 177 173 209 220 180 168 171 164 163 155 162 184 174 165 153 156 154 153 157 120 99 80 138 258 305 332 257 254 214 199 208 220
262 228 207 186 194 188 185 193 186 192 198 169 177 203 181 160 154 155 150 157 154 166 177 179 168 162 162 139 143 154 157 156 191 165 188 246 226 287 272 251 191 225 239